When you browse on this site, cookies collect data to enhance your experience and personalize the content and advertising you see.
Visit our Privacy Policy to learn more. By continuing to use the site, you agree to this use of cookies and data.
  • In Latvia
  • List of Countries
  • For 7 days
  • Water Temperature
  • Weather Map
  • Weather Widgets
  • user-avatar
    Login

    Hourly Weather Solnechnoe

    Today, 8 April, Wednesday

    Time Temperature Precipitation Wind Pressure Humidity
    00:00 +9°C° 0 mm 3 mps 734 mmHg 69%
    01:00 +9°C° 0 mm 2 mps 734 mmHg 70%
    02:00 +10°C° 0 mm 2 mps 734 mmHg 70%
    03:00 +10°C° 0 mm 2 mps 734 mmHg 71%
    04:00 +9°C° 0.1 mm 3 mps 735 mmHg 73%
    05:00 +8°C° 0.1 mm 3 mps 736 mmHg 76%
    06:00 +7°C° 0.1 mm 4 mps 736 mmHg 78%
    07:00 +5°C° 0.7 mm 3 mps 737 mmHg 81%
    08:00 +4°C° 0.7 mm 3 mps 738 mmHg 83%
    09:00 +4°C° 0.7 mm 2 mps 739 mmHg 86%
    10:00 +4°C° 0.3 mm 2 mps 739 mmHg 87%
    11:00 +5°C° 0.3 mm 1 mps 739 mmHg 88%
    12:00 +5°C° 0.3 mm 1 mps 740 mmHg 90%
    13:00 +5°C° 0.1 mm 1 mps 739 mmHg 85%
    14:00 +6°C° 0.1 mm 1 mps 739 mmHg 81%
    15:00 +6°C° 0.1 mm 2 mps 739 mmHg 77%
    16:00 +5°C° 0.2 mm 2 mps 739 mmHg 80%
    17:00 +6°C° 0.2 mm 1 mps 739 mmHg 84%
    18:00 +6°C° 0.2 mm 1 mps 739 mmHg 87%
    19:00 +6°C° 0.1 mm 1 mps 739 mmHg 89%
    20:00 +5°C° 0.1 mm 1 mps 739 mmHg 91%
    21:00 +4°C° 0.1 mm 0 mps 739 mmHg 92%
    22:00 +4°C° 0.1 mm 0 mps 739 mmHg 93%
    23:00 +4°C° 0.1 mm 0 mps 739 mmHg 93%

    Tomorrow, 9 April, Thursday

    Time Temperature Precipitation Wind Pressure Humidity
    00:00 +4°C° 0.1 mm 0 mps 739 mmHg 93%
    01:00 +5°C° 0.6 mm 1 mps 739 mmHg 94%
    02:00 +5°C° 0.6 mm 1 mps 738 mmHg 95%
    03:00 +4°C° 0.6 mm 1 mps 738 mmHg 96%
    04:00 +4°C° 0.3 mm 1 mps 738 mmHg 97%
    05:00 +3°C° 0.3 mm 2 mps 738 mmHg 97%
    06:00 +3°C° 0.3 mm 2 mps 739 mmHg 97%
    07:00 +3°C° 1.1 mm 2 mps 739 mmHg 97%
    08:00 +3°C° 1.1 mm 2 mps 739 mmHg 96%
    09:00 +2°C° 1.1 mm 2 mps 739 mmHg 96%
    10:00 +2°C° 0.9 mm 3 mps 740 mmHg 96%
    11:00 +2°C° 0.9 mm 3 mps 740 mmHg 96%
    12:00 +1°C° 0.9 mm 4 mps 741 mmHg 96%
    13:00 +1°C° 0.8 mm 4 mps 741 mmHg 95%
    14:00 +1°C° 0.8 mm 4 mps 742 mmHg 94%
    15:00 +3°C° 0.8 mm 4 mps 742 mmHg 93%
    16:00 +1°C° 0.7 mm 4 mps 743 mmHg 94%
    17:00 +1°C° 0.7 mm 4 mps 744 mmHg 95%
    18:00 +1°C° 0.7 mm 4 mps 745 mmHg 96%
    19:00 0°C° 0.3 mm 4 mps 745 mmHg 93%
    20:00 +1°C° 0.3 mm 3 mps 746 mmHg 91%
    21:00 +2°C° 0.3 mm 2 mps 747 mmHg 88%
    22:00 +2°C° 0.1 mm 2 mps 747 mmHg 87%
    23:00 +3°C° 0.1 mm 1 mps 748 mmHg 85%

    Day after tomorrow, 10 April, Friday

    Time Temperature Precipitation Wind Pressure Humidity
    00:00 +3°C° 0.1 mm 1 mps 748 mmHg 83%
    01:00 +2°C° 0 mm 1 mps 749 mmHg 83%
    02:00 +2°C° 0 mm 1 mps 749 mmHg 83%
    03:00 +1°C° 0 mm 1 mps 749 mmHg 83%
    04:00 +1°C° 0 mm 1 mps 749 mmHg 83%
    05:00 0°C° 0 mm 1 mps 749 mmHg 82%
    06:00 0°C° 0 mm 1 mps 750 mmHg 81%
    07:00 +1°C° 0 mm 1 mps 750 mmHg 78%
    08:00 +3°C° 0 mm 1 mps 750 mmHg 74%
    09:00 +4°C° 0 mm 1 mps 750 mmHg 70%
    10:00 +5°C° 0 mm 1 mps 749 mmHg 66%
    11:00 +6°C° 0 mm 1 mps 749 mmHg 62%
    12:00 +7°C° 0 mm 1 mps 749 mmHg 58%
    13:00 +8°C° 0 mm 1 mps 749 mmHg 57%
    14:00 +7°C° 0 mm 2 mps 749 mmHg 55%
    15:00 +7°C° 0 mm 2 mps 748 mmHg 53%
    16:00 +7°C° 0 mm 2 mps 748 mmHg 56%
    17:00 +7°C° 0 mm 2 mps 747 mmHg 59%
    18:00 +6°C° 0 mm 2 mps 747 mmHg 62%
    19:00 +6°C° 0 mm 1 mps 747 mmHg 68%
    20:00 +5°C° 0 mm 1 mps 747 mmHg 73%
    21:00 +4°C° 0 mm 1 mps 747 mmHg 79%
    22:00 +3°C° 0 mm 1 mps 747 mmHg 80%
    23:00 +3°C° 0 mm 1 mps 746 mmHg 81%

    11 April, Saturday

    Time Temperature Precipitation Wind Pressure Humidity
    00:00 +2°C° 0 mm 1 mps 746 mmHg 82%
    01:00 +2°C° 0 mm 1 mps 746 mmHg 83%
    02:00 +2°C° 0 mm 1 mps 745 mmHg 83%
    03:00 +2°C° 0 mm 1 mps 745 mmHg 83%
    04:00 +2°C° 0 mm 1 mps 745 mmHg 82%
    05:00 +1°C° 0 mm 0 mps 745 mmHg 82%
    06:00 +1°C° 0 mm 0 mps 745 mmHg 81%
    07:00 +2°C° 0 mm 0 mps 745 mmHg 75%
    08:00 +4°C° 0 mm 0 mps 745 mmHg 69%
    09:00 +5°C° 0 mm 0 mps 745 mmHg 63%
    10:00 +7°C° 0 mm 0 mps 744 mmHg 58%
    11:00 +9°C° 0 mm 1 mps 744 mmHg 54%
    12:00 +11°C° 0 mm 1 mps 744 mmHg 50%
    13:00 +11°C° 0 mm 1 mps 743 mmHg 48%
    14:00 +12°C° 0 mm 1 mps 743 mmHg 45%
    15:00 +13°C° 0 mm 1 mps 743 mmHg 43%
    16:00 +13°C° 0 mm 1 mps 743 mmHg 45%
    17:00 +13°C° 0 mm 1 mps 742 mmHg 48%
    18:00 +13°C° 0 mm 1 mps 742 mmHg 50%
    19:00 +11°C° 0 mm 1 mps 742 mmHg 55%
    20:00 +10°C° 0 mm 1 mps 742 mmHg 59%
    21:00 +8°C° 0 mm 1 mps 742 mmHg 64%
    22:00 +8°C° 0 mm 1 mps 742 mmHg 66%
    23:00 +7°C° 0 mm 1 mps 741 mmHg 69%

    12 April, Sunday

    Time Temperature Precipitation Wind Pressure Humidity
    00:00 +7°C° 0 mm 1 mps 741 mmHg 71%
    01:00 +6°C° 0 mm 1 mps 741 mmHg 72%
    02:00 +6°C° 0 mm 1 mps 741 mmHg 74%
    03:00 +5°C° 0 mm 1 mps 740 mmHg 76%
    04:00 +5°C° 0 mm 1 mps 740 mmHg 76%
    05:00 +5°C° 0 mm 1 mps 740 mmHg 76%
    06:00 +5°C° 0 mm 1 mps 740 mmHg 76%
    07:00 +7°C° 0 mm 1 mps 740 mmHg 70%
    08:00 +9°C° 0 mm 1 mps 740 mmHg 65%
    09:00 +10°C° 0 mm 1 mps 740 mmHg 59%
    10:00 +12°C° 0 mm 1 mps 740 mmHg 54%
    11:00 +14°C° 0 mm 2 mps 739 mmHg 49%
    12:00 +16°C° 0 mm 2 mps 739 mmHg 44%
    13:00 +17°C° 0 mm 2 mps 739 mmHg 42%
    14:00 +18°C° 0 mm 3 mps 738 mmHg 40%
    15:00 +18°C° 0 mm 3 mps 738 mmHg 37%
    16:00 +18°C° 0 mm 3 mps 737 mmHg 40%
    17:00 +17°C° 0 mm 3 mps 737 mmHg 43%
    18:00 +17°C° 0 mm 4 mps 737 mmHg 46%
    19:00 +14°C° 0 mm 3 mps 736 mmHg 51%
    20:00 +12°C° 0 mm 3 mps 736 mmHg 56%
    21:00 +12°C° 0 mm 2 mps 736 mmHg 61%
    22:00 +10°C° 0 mm 2 mps 736 mmHg 62%
    23:00 +10°C° 0 mm 2 mps 736 mmHg 62%

    13 April, Monday

    Time Temperature Precipitation Wind Pressure Humidity
    00:00 +9°C° 0 mm 2 mps 735 mmHg 62%
    01:00 +9°C° 0 mm 2 mps 735 mmHg 62%
    02:00 +9°C° 0 mm 2 mps 734 mmHg 61%
    03:00 +8°C° 0 mm 2 mps 734 mmHg 61%
    04:00 +8°C° 0 mm 2 mps 733 mmHg 61%
    05:00 +8°C° 0 mm 3 mps 733 mmHg 61%
    06:00 +8°C° 0 mm 3 mps 732 mmHg 61%
    07:00 +10°C° 0 mm 3 mps 732 mmHg 56%
    08:00 +12°C° 0 mm 3 mps 732 mmHg 52%
    09:00 +14°C° 0 mm 3 mps 731 mmHg 47%
    10:00 +14°C° 0 mm 4 mps 731 mmHg 47%
    11:00 +14°C° 0 mm 5 mps 731 mmHg 48%
    12:00 +14°C° 0 mm 6 mps 731 mmHg 49%
    13:00 +15°C° 0 mm 6 mps 731 mmHg 49%
    14:00 +17°C° 0 mm 6 mps 731 mmHg 50%
    15:00 +18°C° 0 mm 7 mps 732 mmHg 51%
    16:00 +17°C° 0 mm 6 mps 732 mmHg 57%
    17:00 +15°C° 0 mm 5 mps 733 mmHg 64%
    18:00 +14°C° 0 mm 4 mps 733 mmHg 70%
    19:00 +13°C° 0.1 mm 3 mps 734 mmHg 74%
    20:00 +13°C° 0.1 mm 2 mps 734 mmHg 78%
    21:00 +13°C° 0.1 mm 2 mps 735 mmHg 82%
    22:00 +12°C° 0.3 mm 2 mps 735 mmHg 85%
    23:00 +12°C° 0.3 mm 1 mps 735 mmHg 88%
    Show more